Location: Absher
(46.5583°N, 107.9840°W)
Time: 08:20:43
(UTC+00:00)

STRAND 1 - Pass Details

Date: 07 April 2023
Orbit: 767 x 779 km, 98.4° (Epoch: 02 June)

Event Time Altitude Azimuth Distance (km) Brightness Sun altitude
Rises 11:23:00 0° 113° (ESE) 3,244 ? -13.4°
Reaches altitude 10° 11:26:13 10° 91° (E) 2,319 ? -12.9°
Maximum altitude 11:29:05 15° 57° (ENE) 1,973 ? -12.5°
Drops below altitude 10° 11:31:58 10° 22° (NNE) 2,323 ? -12.0°
Sets 11:35:11 0° 1° (N) 3,253 ? -11.5°
